Wind_Speed
17 21 17 16 15 12 10 8 6 5 4 5 5 5 5 4 3 3 3 3 3 2 2 3 3 5 5 4 2 2 3 4 6 7 7 9 10 10 12 14 15 14 10 9 10 12 13 13 13 13 13 12 12 12 12 12 11 11 11 10 10 10 10 10 10 9 9 9 9 9 9 8 8 8 7 6 5 5 6 7 7 7 7 7 7
16 21 20 18 17 14 10 9 7 6 5 5 5 5 4 4 3 2 1 2 2 2 2 3 4 6 6 4 2 2 2 3 5 6 6 9 9 9 11 13 14 13 11 8 9 11 12 12 12 12 12 12 11 10 11 10 10 10 10 10 9 9 9 10 10 9 8 8 9 9 9 8 8 7 6 5 5 6 7 7 7 7 7 7 7
17 20 22 20 19 16 12 10 8 7 7 6 5 4 4 4 3 2 1 1 1 1 2 4 5 6 7 5 3 2 1 2 4 5 6 8 9 8 10 12 13 13 11 8 8 9 10 11 10 10 10 10 9 9 9 9 9 9 9 8 8 8 8 9 9 9 8 8 8 8 8 7 7 6 6 6 6 7 7 7 7 7 7 7 7
18 19 23 24 21 17 13 11 9 8 8 7 6 5 5 5 5 3 1 2 2 2 3 5 5 6 6 5 4 3 2 1 3 4 5 7 8 7 8 10 12 12 10 8 7 8 8 8 8 8 8 8 8 7 7 8 8 8 8 8 7 7 8 8 8 8 8 8 8 7 7 6 6 6 6 7 7 7 7 8 8 8 8 8 9
21 20 22 24 23 19 15 12 10 9 9 8 7 6 6 6 6 5 3 3 3 3 4 5 5 6 6 6 5 4 2 1 2 3 5 6 7 7 8 9 11 11 9 7 6 6 7 7 7 7 7 6 6 6 6 6 6 7 7 7 7 7 7 8 8 8 7 7 7 7 7 6 6 6 7 7 7 7 8 9 9 9 9 9 9
22 21 21 23 23 20 17 14 12 10 10 9 8 6 7 7 6 6 6 5 4 5 5 5 5 5 6 7 6 5 3 2 2 3 4 5 5 6 7 8 8 10 9 8 6 5 6 6 6 6 6 6 5 5 5 5 5 6 7 7 7 7 7 8 8 8 7 6 6 7 6 6 6 6 6 6 7 8 9 9 8 8 8 9 9
22 21 22 23 22 21 20 16 13 12 11 11 9 7 7 8 7 7 8 7 6 6 6 6 5 4 6 7 6 5 4 3 2 2 3 3 4 5 6 5 6 9 9 9 7 5 5 5 5 5 5 5 4 4 4 5 6 7 8 8 7 7 8 8 8 8 7 6 5 6 6 5 5 5 6 6 7 7 7 7 7 8 8 8 8
23 21 22 23 21 21 23 19 15 14 13 12 11 9 9 9 8 8 8 8 7 7 7 7 6 5 5 6 6 6 6 5 3 2 2 2 3 3 4 3 6 8 8 8 7 7 7 6 6 6 5 5 5 5 5 6 7 8 8 8 8 8 9 9 9 8 8 6 5 5 5 4 4 5 5 5 6 6 6 6 7 7 7 8 8
25 21 20 22 21 22 24 22 18 16 15 14 13 11 11 11 10 9 9 8 8 8 8 8 7 6 5 6 6 6 7 5 4 2 2 1 2 2 2 3 6 7 7 7 7 7 8 8 7 7 6 6 6 6 5 6 7 8 8 8 9 9 9 9 9 9 8 7 6 5 5 4 4 4 4 5 5 5 5 6 6 7 7 9 10
25 24 21 22 23 24 25 24 20 18 17 16 15 13 13 13 12 11 10 9 8 9 9 9 8 6 6 6 6 7 7 5 4 3 2 1 1 1 1 2 3 6 7 7 6 6 7 8 8 7 7 7 7 7 6 7 8 8 8 9 9 10 10 10 9 9 9 8 7 5 5 4 4 4 4 4 4 4 5 5 6 7 8 10 12
23 24 23 22 22 23 24 25 23 21 19 18 17 15 15 14 13 11 10 10 9 10 11 10 9 7 6 6 6 6 6 5 4 3 2 1 0 1 1 1 1 4 6 5 5 5 6 7 7 7 7 7 7 7 7 7 7 8 8 8 9 9 9 9 9 8 8 7 6 5 4 4 3 3 3 3 3 4 5 6 7 8 10 11 13
20 22 23 22 21 21 21 23 26 25 22 20 19 18 17 16 14 12 11 11 11 10 11 11 10 8 7 6 6 5 4 4 4 3 2 1 1 2 1 2 1 2 4 4 4 4 5 5 6 6 6 7 7 7 7 7 7 8 8 8 9 9 9 8 8 7 7 6 5 4 4 4 3 3 3 4 4 5 5 6 8 9 11 12 13
21 20 21 21 21 21 20 21 26 29 25 23 22 20 19 16 14 13 12 12 12 12 12 12 10 8 7 6 5 4 3 3 3 3 3 3 3 3 2 2 2 1 2 3 3 3 4 5 5 5 5 5 6 6 6 6 6 8 8 8 8 8 8 8 7 7 6 6 5 5 5 5 4 5 5 5 5 6 6 7 9 10 11 13 14
23 22 20 20 20 21 21 21 26 33 29 25 24 21 19 16 14 14 13 13 13 12 12 12 11 9 7 6 5 4 3 3 3 3 3 4 4 3 3 3 3 2 1 2 2 2 3 4 3 4 4 5 5 5 5 5 6 7 8 8 8 8 7 7 7 7 6 6 6 6 6 6 6 6 6 6 7 7 8 9 10 11 12 13 14
24 24 22 20 20 21 21 21 27 35 31 27 24 22 20 17 15 15 15 15 15 13 13 12 12 10 8 7 6 5 4 3 2 2 3 4 4 4 4 3 3 3 2 1 1 1 2 2 2 2 3 4 4 4 4 4 5 5 6 7 7 7 6 6 6 6 6 6 6 7 7 7 7 7 7 7 8 8 9 10 11 12 13 13 14
26 25 24 22 21 21 21 20 27 35 32 28 25 23 21 18 17 17 17 17 16 14 13 13 12 11 10 9 7 6 5 4 3 2 2 2 2 3 3 3 3 3 3 3 1 1 1 2 2 1 2 2 3 3 3 3 3 4 4 5 5 5 5 5 5 6 6 6 7 7 8 8 8 8 8 8 8 8 9 10 12 13 13 13 14
27 26 25 24 23 22 21 19 25 33 31 29 27 25 23 21 19 19 19 19 18 16 15 14 13 12 11 10 8 7 6 5 3 2 1 0 0 1 2 3 3 4 4 4 3 2 1 2 3 2 3 3 2 2 2 2 3 3 4 4 4 4 5 5 6 6 7 7 7 8 8 8 8 8 8 8 8 8 10 11 12 13 14 14 14
28 28 27 26 25 23 22 21 23 28 31 30 28 27 25 23 21 21 21 21 20 19 17 15 14 13 12 11 10 8 6 5 3 2 1 1 1 1 2 2 3 5 5 5 4 3 2 3 3 3 4 4 4 3 3 3 4 5 5 6 6 6 6 7 7 8 8 8 9 9 9 9 8 8 8 8 8 9 10 12 13 14 14 15 15
30 29 29 28 27 26 24 24 24 25 30 32 29 28 27 25 24 23 23 23 21 20 19 18 16 14 13 12 11 9 7 5 4 2 1 1 2 1 1 2 3 5 6 6 5 4 3 4 4 4 5 5 5 5 4 4 5 6 6 7 7 7 8 8 9 9 10 10 10 10 10 9 9 9 9 9 9 10 11 12 13 14 15 15 16
32 31 31 30 29 28 27 26 26 25 29 34 33 31 31 28 26 26 25 24 23 22 21 20 19 16 14 13 12 10 9 7 5 3 2 1 2 1 1 1 3 4 5 6 7 6 4 4 4 5 5 6 6 6 5 5 6 6 7 8 8 8 9 9 10 10 11 11 11 11 10 10 9 9 9 9 10 10 11 13 14 15 15 16 17
34 34 33 32 31 30 29 28 28 27 28 35 37 34 34 31 29 28 27 25 25 25 24 23 21 19 16 14 13 11 10 9 7 5 3 2 1 1 1 1 2 3 4 5 7 7 6 5 5 5 6 7 7 7 7 7 7 7 8 9 9 9 10 10 10 11 11 11 11 11 11 10 10 9 9 10 11 11 12 14 14 15 16 17 18
36 36 36 35 34 32 32 30 30 29 29 35 43 39 36 34 32 31 29 28 28 28 27 25 24 22 19 16 15 14 12 11 9 7 5 4 2 1 0 1 2 3 3 4 6 7 7 6 6 7 7 8 8 9 9 9 9 9 10 10 11 11 11 10 10 11 11 11 11 12 11 11 10 10 10 11 12 12 14 15 15 16 16 17 18
37 38 38 37 36 35 34 32 31 31 30 36 47 44 38 38 35 34 32 31 31 30 29 28 26 24 22 19 16 15 14 13 12 10 8 6 4 3 2 1 1 2 3 4 5 6 7 7 7 8 8 8 9 10 11 11 11 11 12 13 13 12 12 11 11 11 11 11 11 11 11 11 11 11 11 12 12 13 14 15 16 17 17 17 18
38 39 39 39 38 37 36 34 32 31 30 35 48 46 40 40 38 37 36 33 33 32 31 30 27 25 24 22 19 17 16 15 14 13 10 8 6 5 4 3 2 2 2 3 5 6 7 7 7 8 9 9 10 10 11 12 12 12 13 13 13 13 12 12 12 11 11 11 10 11 11 11 12 12 12 12 13 13 14 16 17 17 18 18 18
41 40 40 40 40 39 38 36 33 32 29 32 44 46 41 41 40 39 38 36 35 33 33 32 29 27 26 24 21 18 17 16 16 15 13 10 8 7 6 5 4 3 2 3 4 5 6 7 7 8 8 9 10 10 10 11 11 11 11 12 12 12 12 12 12 11 11 10 10 11 11 12 12 13 14 14 14 15 15 16 17 18 18 18 18
44 42 41 42 42 42 41 39 36 35 32 32 39 44 44 43 41 41 40 39 37 35 34 34 32 30 28 25 23 20 18 18 17 16 15 13 11 9 8 7 6 5 4 3 3 5 6 6 7 7 7 8 9 9 9 9 9 10 10 10 10 10 11 11 11 10 10 10 10 10 11 12 13 15 16 16 16 16 16 17 18 19 19 19 19
47 45 44 44 45 45 44 44 42 39 37 36 37 41 45 45 44 44 43 41 38 36 35 34 33 31 29 27 25 22 20 19 19 18 17 16 14 12 10 9 8 7 5 4 4 4 6 6 6 7 7 7 7 8 8 8 8 9 9 9 9 9 9 9 9 9 8 9 9 10 12 13 16 17 18 17 16 17 17 19 20 20 20 19 19
51 48 46 46 47 48 48 47 45 41 40 39 39 39 43 47 47 45 45 43 40 38 37 35 33 32 31 30 28 25 22 20 20 19 19 18 16 14 13 11 11 9 8 6 5 5 5 6 6 6 6 7 7 7 7 7 8 8 8 8 8 8 7 7 8 8 8 9 10 12 14 16 18 18 17 16 16 16 18 19 20 21 21 20 20
53 51 49 48 49 51 51 49 45 42 41 41 41 40 41 45 48 47 46 45 43 41 40 37 34 33 32 32 30 28 24 22 21 20 20 20 18 17 15 14 13 12 10 9 7 6 6 6 6 6 5 6 7 7 7 7 8 8 8 8 7 7 6 6 7 8 9 10 12 13 15 16 17 17 16 16 16 17 18 19 20 21 21 21 20
56 54 52 51 51 52 53 50 46 45 43 43 43 42 41 43 47 48 46 46 45 43 41 39 36 34 33 32 32 30 27 24 23 22 22 21 20 20 18 17 15 14 13 11 10 9 8 7 7 6 5 5 5 6 7 7 8 8 8 8 7 7 6 6 7 8 9 11 12 13 14 15 15 16 16 16 17 18 19 20 21 21 22 22 22
60 58 56 54 54 53 54 52 49 47 46 46 45 44 43 43 45 48 48 47 46 45 43 41 39 36 33 32 33 32 29 26 25 24 23 23 22 22 21 19 18 17 16 14 13 12 11 9 9 8 8 7 6 5 6 7 8 8 8 9 9 8 8 8 8 9 10 11 13 14 15 15 15 16 16 17 18 19 20 20 21 21 22 22 23
63 61 59 57 55 54 54 53 51 49 48 48 46 46 46 45 44 47 50 49 48 46 45 43 42 39 35 32 33 33 31 29 27 26 25 24 24 23 23 21 20 19 18 16 15 14 13 12 11 11 10 10 10 8 7 7 8 8 9 9 10 10 10 11 11 12 12 13 14 15 15 15 15 16 17 18 19 20 21 21 22 22 22 22 23
65 64 63 60 57 56 55 54 53 52 50 49 48 47 47 47 46 47 50 52 50 47 46 45 43 41 38 34 33 34 34 31 29 28 26 25 25 25 24 23 21 21 20 18 17 16 15 14 13 13 13 13 13 13 12 11 10 10 9 9 10 10 11 11 12 13 14 14 14 15 16 16 16 16 17 18 19 19 20 21 22 23 23 23 24
66 66 65 62 59 57 55 54 53 53 51 49 50 50 48 47 48 48 50 53 53 50 47 47 45 43 41 37 35 35 34 32 30 29 28 27 26 26 26 24 23 23 21 20 18 17 16 15 14 14 15 15 15 15 16 15 14 13 13 12 11 12 12 13 13 14 15 15 15 16 17 17 17 17 18 19 19 19 20 21 23 24 24 24 24
67 67 67 64 61 58 57 55 53 54 53 50 51 51 50 48 48 49 50 52 55 53 50 48 47 45 43 40 38 36 34 33 31 29 29 28 28 28 27 26 25 25 23 20 19 18 17 16 15 15 15 16 17 17 17 17 17 17 16 15 14 14 15 15 16 16 17 17 17 17 18 18 19 19 19 19 19 19 19 21 22 24 24 24 24
65 66 67 67 63 60 59 57 54 54 53 51 51 52 51 49 47 48 49 51 55 56 52 49 49 47 45 43 41 38 35 33 32 30 29 29 29 29 29 29 28 26 24 21 20 19 18 17 16 15 15 16 17 18 18 18 18 19 18 16 16 16 16 16 17 18 19 20 20 20 20 20 21 21 21 20 20 19 20 21 22 24 24 24 25
63 64 66 68 66 62 60 59 57 55 54 53 52 53 53 50 47 46 47 50 53 55 54 51 50 49 47 45 44 41 38 35 33 31 30 30 31 31 32 31 30 28 26 23 21 20 19 18 17 16 15 15 16 17 18 18 18 19 19 17 16 16 16 16 17 18 19 20 21 22 22 22 22 22 22 21 21 21 21 21 22 24 25 25 25
63 64 65 65 66 64 62 60 59 57 55 55 54 54 54 52 49 47 46 48 50 53 54 53 51 50 49 47 46 44 40 38 35 33 32 32 33 33 34 34 31 29 27 25 24 23 22 21 20 18 17 16 16 16 17 18 19 20 20 18 17 16 15 16 17 18 19 20 21 22 23 23 24 23 23 23 23 22 22 22 23 24 25 26 27
61 62 63 63 64 65 63 61 61 59 58 57 56 56 56 55 53 50 49 48 49 51 54 54 52 51 50 49 48 46 43 40 38 36 34 33 34 35 36 36 34 31 29 28 27 26 25 24 22 20 19 17 17 17 18 19 19 20 20 19 18 17 16 17 18 20 21 21 21 22 23 24 24 24 24 25 25 24 24 24 24 25 26 26 27
59 59 61 61 61 64 65 63 62 62 60 59 58 58 59 59 57 54 52 51 50 51 53 55 55 54 53 51 50 47 45 43 40 38 36 35 35 36 37 38 36 33 31 30 30 29 28 27 25 23 21 19 18 18 19 20 20 20 20 19 19 19 18 19 21 22 23 23 23 23 23 24 25 25 26 26 26 26 26 27 26 26 27 28 28
58 56 58 59 59 62 66 64 63 64 63 61 60 61 61 60 58 57 55 53 53 52 53 55 56 55 55 54 52 49 47 44 42 39 37 37 36 37 38 39 38 35 33 32 31 30 30 29 28 26 24 22 22 21 21 21 21 21 20 20 20 20 20 21 22 24 24 24 24 25 25 25 25 25 26 27 27 27 27 28 28 28 28 29 29
58 57 58 59 59 61 65 65 64 65 65 62 62 63 63 62 60 59 58 57 57 56 55 56 57 56 55 55 55 53 49 46 44 41 39 39 39 39 39 40 40 38 36 34 32 32 32 31 31 29 26 25 25 25 24 23 23 22 21 22 21 20 21 22 22 23 23 23 24 26 28 28 27 26 27 28 28 28 28 29 29 29 30 31 31
59 58 58 59 59 60 64 66 64 66 66 65 64 64 64 63 61 59 58 58 59 57 55 54 55 55 54 55 56 56 53 50 47 44 41 40 41 40 39 40 41 40 38 36 35 34 34 33 32 31 28 28 29 29 28 27 26 25 24 23 23 22 22 22 23 24 24 24 25 27 29 30 30 29 29 29 29 29 29 30 30 30 31 32 32
60 59 57 58 60 60 63 65 65 66 68 67 67 66 65 64 62 60 58 57 57 57 55 54 55 55 55 55 57 59 57 53 50 47 43 42 43 42 40 40 42 42 41 40 38 37 36 35 34 33 32 32 33 33 32 31 30 29 27 26 26 26 24 24 25 25 25 27 28 29 29 30 31 31 31 31 31 29 29 30 31 31 32 33 33
59 58 57 59 62 61 61 65 66 67 69 70 68 67 66 65 63 61 60 59 57 57 57 57 56 57 58 58 59 60 60 57 53 50 47 45 45 45 43 42 42 43 42 42 41 41 39 37 36 35 35 35 35 35 35 35 34 32 30 30 31 30 28 27 28 28 27 29 31 31 30 31 31 32 33 33 33 31 29 30 31 32 33 33 34
58 58 58 60 61 59 60 65 67 67 70 71 70 68 67 65 63 61 60 60 60 58 58 59 58 59 60 61 61 62 62 60 57 54 51 48 48 47 46 44 43 43 43 41 41 42 42 40 38 38 38 38 37 36 36 35 35 34 33 33 34 32 31 30 30 31 30 31 33 34 32 31 32 33 34 35 35 32 31 31 32 33 34 34 35
56 58 59 59 58 57 61 65 67 68 71 73 71 70 68 66 64 62 60 61 61 60 59 59 59 60 61 63 63 64 65 62 59 57 55 52 51 50 50 48 45 45 45 42 41 42 43 43 42 41 41 41 39 38 37 36 35 35 35 35 35 34 33 32 31 32 32 32 34 36 34 33 33 33 35 36 34 32 33 33 34 35 35 35 36
56 58 59 58 56 57 60 65 67 68 71 73 72 70 69 67 65 63 61 61 62 61 60 60 60 61 63 64 62 63 66 64 60 58 57 56 54 53 52 50 48 47 47 45 43 43 44 44 45 45 45 43 41 40 41 39 37 38 38 37 35 34 34 33 31 32 33 32 33 36 36 34 33 33 34 35 34 33 34 35 36 37 36 35 36
57 58 59 59 57 57 60 64 67 69 70 72 73 71 69 68 66 64 63 62 62 61 59 59 60 61 62 63 61 61 64 64 61 59 59 58 57 55 54 52 50 49 49 46 45 45 45 45 47 48 48 46 43 43 45 44 43 43 41 38 36 36 37 36 34 34 35 33 34 37 38 37 35 34 34 36 36 34 35 36 37 38 37 35 35
56 58 59 59 58 58 61 64 67 69 70 72 73 72 70 69 67 65 65 64 62 60 58 58 58 59 59 60 58 58 61 62 61 60 61 61 60 58 56 53 52 51 50 47 45 46 47 48 49 50 50 48 46 45 47 47 46 45 42 38 39 39 39 39 38 38 38 35 36 40 41 39 38 37 37 38 37 35 34 35 36 38 37 35 34
56 58 59 60 59 59 61 63 65 67 70 72 73 72 70 69 68 66 66 65 63 61 59 58 57 56 57 57 54 53 55 58 59 59 61 63 63 61 58 55 53 53 53 50 46 46 49 50 51 51 52 51 50 49 49 48 47 45 41 40 41 42 41 41 42 41 39 37 38 42 43 41 42 42 41 40 38 35 35 35 36 37 37 36 34
Wind_Direction
204 198 193 191 191 196 201 204 212 216 224 236 263 262 227 208 202 187 145 145 166 182 196 193 195 196 208 215 165 103 59 37 39 30 28 44 31 16 24 27 31 41 51 61 71 79 79 79 82 85 88 89 89 87 85 82 81 80 79 77 74 71 67 63 62 63 66 66 68 75 81 88 94 99 100 92 70 46 41 44 46 45 43 41 37
212 203 201 199 193 195 200 204 208 213 215 225 257 261 233 222 228 218 165 164 152 147 210 211 207 203 208 209 171 130 75 40 41 38 31 44 38 21 26 31 33 41 53 68 81 85 84 84 84 86 87 86 85 82 81 79 77 76 76 75 70 66 63 61 60 61 67 71 73 76 82 89 93 94 88 73 58 51 52 52 49 45 40 37 31
221 211 205 206 199 192 198 205 207 212 210 214 241 252 234 230 234 233 191 218 177 147 212 216 207 204 209 204 172 156 112 52 49 48 31 35 40 29 29 35 38 43 55 71 87 90 88 87 87 86 85 83 80 77 76 75 72 70 69 69 66 60 60 61 59 61 68 73 75 77 81 85 87 84 77 67 61 59 55 48 41 34 30 26 18
230 225 213 210 203 192 195 204 206 212 210 208 227 235 225 226 226 229 219 221 224 198 211 211 199 200 206 198 180 183 176 92 63 59 40 31 34 34 33 39 44 47 57 75 93 96 89 85 85 85 82 77 74 71 71 71 68 65 61 61 60 56 57 62 62 63 69 73 74 75 76 77 79 77 74 69 63 55 44 35 28 23 18 14 6
234 236 224 214 206 194 193 202 205 212 213 207 219 225 216 221 219 224 240 238 231 219 210 203 193 198 203 194 189 198 203 147 84 68 57 37 25 33 36 38 48 54 60 75 97 98 85 77 78 80 79 76 70 65 65 67 69 67 59 55 56 56 56 60 64 66 70 75 74 73 72 73 75 74 70 62 51 38 29 23 20 18 13 7 0
235 239 234 222 212 201 195 199 203 209 214 208 215 220 212 219 214 217 236 241 237 226 211 196 188 196 200 195 196 204 214 198 119 84 66 46 28 38 42 37 51 61 62 69 84 92 83 75 74 76 78 78 71 63 60 63 69 72 67 58 56 59 62 62 65 68 70 77 79 76 75 73 69 64 56 45 33 25 21 19 18 15 9 3 357
232 239 238 228 219 211 203 199 201 207 213 209 213 216 208 212 209 212 225 229 232 228 211 195 187 192 195 195 202 209 218 220 168 108 77 52 34 42 49 48 61 66 64 64 68 79 82 78 77 77 79 79 72 67 65 67 71 75 74 69 64 65 67 68 70 72 71 73 75 76 75 68 58 47 39 31 23 20 18 17 16 11 6 1 356
227 235 239 232 223 218 211 202 199 206 213 208 211 212 204 206 204 207 217 220 226 227 214 199 190 189 193 196 204 217 225 224 200 139 94 61 36 34 37 42 63 69 68 65 66 76 84 86 85 83 81 75 71 73 74 77 77 77 77 78 76 71 70 70 70 71 70 68 66 64 63 57 47 37 32 27 21 18 17 14 11 7 4 360 357
225 229 236 237 232 224 216 208 199 203 214 209 208 209 202 207 208 205 212 215 222 225 219 211 197 185 190 196 205 224 230 228 216 172 120 74 34 25 360 13 58 76 79 73 71 78 87 89 84 82 82 77 74 76 78 79 80 78 78 79 78 74 69 65 64 64 64 63 60 55 52 47 41 34 31 28 22 18 14 10 7 5 3 360 360
228 228 231 238 237 232 223 216 203 201 212 210 207 208 202 208 213 210 210 214 222 226 223 220 209 190 188 193 206 227 231 228 225 199 161 134 25 6 332 343 52 81 84 80 78 80 86 88 84 78 77 79 80 82 81 78 79 79 76 75 74 72 68 62 59 59 59 60 60 57 53 49 44 37 32 29 24 17 10 5 2 2 0 359 359
231 232 235 238 236 233 230 225 213 203 208 210 207 207 204 208 214 213 212 214 222 227 224 223 217 201 192 194 205 225 229 226 228 215 197 169 249 295 266 262 340 75 82 82 81 80 83 86 85 79 73 75 79 83 84 81 81 81 77 73 71 69 66 62 58 59 61 60 60 58 56 52 45 38 30 24 19 13 6 360 358 359 357 356 356
234 236 240 241 232 229 234 235 224 209 205 209 209 207 207 209 213 215 214 215 221 228 226 223 221 210 200 199 203 217 225 227 232 220 206 205 237 257 237 233 275 70 84 84 79 80 84 84 84 81 76 74 74 76 79 80 83 85 81 76 73 68 66 65 62 62 63 60 57 53 49 45 34 24 18 11 7 5 2 357 354 355 354 352 353
238 238 242 243 236 234 242 245 230 213 204 207 210 207 208 212 215 218 217 214 218 225 225 221 221 216 208 206 205 214 226 226 232 221 208 218 231 241 239 241 255 195 124 93 79 75 80 83 84 85 82 79 78 75 75 76 79 84 84 81 78 74 69 67 64 62 60 55 49 42 35 30 21 13 8 3 358 357 357 354 352 352 351 351 351
240 239 240 242 242 241 249 255 232 213 204 206 210 206 205 211 216 218 216 210 212 218 221 220 219 218 213 213 209 211 226 225 223 216 212 222 228 234 235 246 264 244 180 103 81 65 67 74 79 83 85 85 82 76 72 70 71 77 82 82 80 78 73 67 63 59 55 48 40 33 26 19 13 7 3 0 356 354 353 351 349 349 349 349 349
241 241 239 239 242 243 251 255 226 209 203 203 208 206 202 207 212 213 212 205 204 209 214 216 217 216 214 215 211 209 219 215 212 215 218 228 231 234 230 237 266 273 259 226 100 50 46 47 48 68 79 84 83 76 66 61 60 66 73 76 75 74 70 63 56 50 44 38 33 29 21 14 8 3 1 359 356 352 349 346 346 346 347 347 345
242 242 239 236 238 242 251 248 214 204 203 199 203 207 203 204 207 206 205 201 198 199 205 210 210 211 214 218 213 211 215 202 192 208 213 224 227 232 229 226 252 267 260 252 251 338 7 358 339 360 38 58 76 77 63 47 44 47 55 59 57 56 52 43 35 31 26 21 20 22 17 11 6 1 359 357 353 350 345 343 342 343 344 342 340
241 242 240 236 236 239 248 243 211 204 206 201 199 205 205 205 204 203 201 198 194 192 198 205 206 207 213 219 218 216 218 205 193 196 184 85 121 245 239 225 243 263 269 272 275 285 312 304 301 322 340 347 13 33 33 18 7 7 14 20 20 20 21 16 9 7 7 3 5 9 9 5 1 356 353 350 347 344 341 339 339 341 340 337 334
241 242 242 238 237 236 241 242 223 211 210 206 202 204 207 206 204 203 202 198 194 190 193 201 206 209 212 218 224 223 222 215 202 187 148 56 46 346 267 239 247 265 276 282 279 280 287 288 296 312 316 321 335 341 347 347 338 337 345 350 352 353 355 356 353 352 354 353 354 358 357 356 354 349 345 342 341 340 338 336 337 338 336 332 330
241 242 243 240 238 236 236 239 237 225 215 210 207 205 208 208 204 205 203 198 194 192 194 199 203 210 214 220 227 228 227 221 209 194 156 71 56 44 311 277 263 269 276 280 278 273 275 286 299 305 305 312 319 321 324 326 322 327 333 335 338 343 344 345 346 346 347 348 350 350 349 347 346 343 337 334 335 335 335 335 336 335 333 330 328
242 242 242 242 239 238 237 237 240 237 223 214 209 208 209 208 205 206 205 199 194 193 196 200 203 207 214 221 226 228 230 229 220 208 188 127 77 66 18 312 288 283 283 284 282 276 275 282 291 297 301 305 307 308 309 311 315 320 325 325 329 334 336 340 343 343 345 346 345 345 343 341 339 336 331 329 330 331 332 333 334 333 330 329 328
242 242 242 242 241 239 238 238 240 242 235 220 212 209 209 208 206 207 206 201 196 195 197 202 206 209 211 219 225 227 230 233 228 218 207 189 134 92 65 10 334 324 312 301 295 287 283 283 284 288 292 296 300 302 304 310 314 317 317 317 320 325 330 336 340 339 340 341 340 339 337 335 333 331 328 326 328 329 331 331 331 330 329 328 327
239 241 242 242 242 241 239 240 240 243 245 228 213 208 207 207 207 207 206 203 200 198 199 204 209 212 212 215 222 227 230 234 236 229 218 207 194 183 181 17 357 350 343 331 318 303 294 290 287 285 285 290 296 299 303 307 308 311 312 312 315 319 324 330 332 330 331 334 335 333 332 332 330 328 326 325 327 329 330 330 328 328 328 327 327
236 239 242 242 242 242 239 240 240 243 251 234 213 207 206 206 207 207 206 206 204 202 203 207 212 215 215 214 218 224 229 233 238 238 228 218 216 220 235 268 318 349 352 348 338 320 308 302 297 292 290 291 293 295 299 303 305 308 310 311 313 316 319 321 321 320 322 326 328 329 329 329 328 326 325 324 327 329 328 327 326 327 327 328 327
235 237 241 241 242 242 240 240 240 241 251 234 211 205 206 206 207 208 208 208 208 208 208 210 213 216 216 213 214 220 226 232 237 240 235 225 225 232 242 256 274 316 344 351 344 329 319 314 310 306 302 299 298 297 300 303 307 311 311 312 314 314 315 316 313 312 316 320 324 327 327 327 326 325 325 325 326 327 326 325 325 326 327 328 327
236 237 239 241 242 243 240 239 238 238 244 230 212 208 207 207 208 208 209 211 211 212 213 213 214 214 215 214 213 217 223 230 235 239 239 232 229 235 245 255 264 282 308 335 342 335 328 323 321 319 316 312 308 307 308 309 313 316 316 318 319 317 315 313 310 311 316 321 327 330 329 328 329 329 328 327 325 325 324 323 324 326 327 328 326
237 236 237 239 241 242 240 238 235 232 234 230 221 216 212 208 209 210 211 212 213 215 216 217 216 214 216 216 214 214 221 228 233 238 241 238 232 233 242 254 261 270 283 303 327 333 334 334 334 331 329 325 320 319 320 319 323 325 325 329 329 324 319 315 313 316 321 327 330 330 327 326 328 329 328 326 323 322 322 322 323 324 325 326 325
237 236 235 237 239 240 239 236 231 227 226 228 227 225 219 212 210 210 212 214 214 217 219 220 218 216 217 217 215 214 217 226 232 235 240 240 236 233 238 249 257 263 270 280 300 319 331 338 343 343 337 333 330 329 331 332 335 337 339 344 342 337 329 324 323 325 326 327 325 323 320 319 321 324 324 324 322 321 319 319 319 320 321 323 323
238 236 234 236 238 239 239 237 233 227 224 224 227 228 225 219 214 210 212 214 215 217 220 221 221 220 218 218 218 215 214 223 229 233 236 239 238 236 237 244 252 258 262 270 283 298 316 329 338 344 341 336 334 334 339 345 347 350 352 354 354 353 349 342 335 330 325 321 318 316 314 315 319 322 324 325 324 320 318 317 317 317 318 320 321
238 236 234 235 237 238 239 238 236 231 227 225 226 229 229 225 220 214 212 213 215 218 221 222 223 224 222 220 220 216 214 220 226 230 233 235 237 237 238 242 248 253 257 263 272 279 291 308 320 330 335 338 339 339 344 350 352 356 359 358 359 359 357 350 338 328 322 318 316 314 314 317 321 324 327 327 325 322 320 318 318 317 317 319 319
238 237 235 235 236 237 238 237 235 232 229 226 226 228 230 228 225 221 216 214 215 218 221 222 224 226 226 223 222 219 215 217 223 228 231 233 234 235 238 241 247 251 253 257 262 268 274 283 294 304 312 321 334 340 344 351 354 356 357 354 351 349 346 341 330 323 320 318 315 315 317 320 324 326 327 326 324 323 322 322 321 321 321 321 320
238 238 237 235 235 235 236 236 234 232 229 228 226 225 228 229 227 225 222 219 216 217 221 223 224 226 227 226 225 222 217 216 221 226 229 232 233 233 236 239 245 251 253 254 256 261 265 269 276 284 290 294 301 315 326 336 345 350 352 348 342 338 334 330 325 322 321 321 320 319 320 323 325 325 324 323 323 323 323 324 325 325 326 325 324
238 238 237 235 234 234 234 234 234 232 229 228 226 225 226 228 228 227 226 225 221 218 220 223 224 225 227 228 228 226 221 218 220 223 226 230 232 233 234 237 242 249 253 255 256 258 262 266 270 275 280 285 288 290 298 309 321 330 339 342 338 333 329 326 324 324 325 326 326 325 325 325 325 323 322 322 323 324 324 325 327 328 329 329 328
236 236 236 234 233 232 231 232 233 232 229 228 227 225 225 227 230 230 229 228 225 221 220 222 225 226 226 228 230 229 225 221 220 223 224 227 232 234 234 235 239 246 251 256 257 257 262 266 270 273 276 279 284 286 288 292 299 307 316 323 327 326 324 323 322 324 326 327 328 329 328 327 324 322 322 322 323 324 325 326 329 330 331 331 330
235 234 234 233 231 230 229 229 231 232 230 227 226 226 225 226 230 232 231 229 227 224 221 222 224 226 226 228 230 230 229 225 222 223 224 226 230 234 235 235 237 242 248 255 259 260 262 265 269 273 275 276 279 283 287 290 293 298 303 308 314 317 318 317 317 320 323 325 329 330 329 328 325 323 324 324 324 324 325 327 330 332 333 332 331
234 233 233 232 230 229 228 227 228 230 230 227 226 226 226 226 228 232 233 231 227 225 224 222 223 226 227 228 230 230 229 228 226 226 226 226 229 233 235 236 237 240 244 251 259 262 262 265 268 271 274 276 278 280 284 289 293 296 299 304 309 313 314 313 313 315 317 320 325 328 328 327 325 325 325 325 323 322 324 327 330 332 332 331 330
233 233 233 232 229 227 227 226 225 228 229 228 227 226 227 227 228 230 233 231 227 225 225 224 223 225 227 229 231 231 230 229 228 229 229 228 230 233 235 237 237 238 241 246 255 260 262 265 268 270 273 276 278 280 282 286 290 292 295 299 304 307 309 309 310 312 313 315 319 322 324 325 325 326 326 325 321 320 322 326 329 331 330 329 328
231 231 232 231 228 225 225 225 224 225 227 227 227 227 225 225 225 227 230 230 227 225 226 227 226 225 227 230 232 232 230 229 228 228 230 231 231 233 235 236 237 239 241 244 249 255 259 261 265 267 270 275 278 281 283 284 285 287 290 293 298 302 304 306 309 311 312 314 317 319 321 322 323 324 324 323 320 318 320 323 326 328 328 328 329
230 229 230 230 228 225 224 224 224 224 225 225 226 227 224 222 222 224 227 229 228 227 228 229 229 227 227 229 232 232 231 230 228 228 230 232 233 234 236 237 237 238 240 242 245 249 254 256 258 260 264 270 276 281 284 285 285 285 286 289 294 297 302 307 310 311 312 313 316 318 319 320 319 319 320 320 319 318 318 319 321 323 325 327 329
231 230 229 229 228 226 224 223 223 222 223 224 224 226 226 224 222 222 225 227 228 229 229 230 231 232 231 230 231 233 231 231 230 229 230 233 235 236 237 238 238 237 238 241 243 246 250 252 254 256 261 266 272 279 283 285 286 287 287 290 294 295 300 307 309 309 310 310 312 314 316 316 316 315 316 316 317 317 317 316 316 318 320 324 327
231 230 229 227 228 228 224 222 222 222 222 223 223 224 225 224 222 221 223 226 226 228 230 231 231 234 235 234 233 233 233 233 232 231 231 234 237 238 239 240 240 239 239 241 243 246 250 253 255 257 262 268 272 276 280 283 285 287 289 292 293 294 299 304 305 307 308 309 310 310 311 311 311 312 313 314 314 315 315 313 313 314 315 318 322
229 230 229 226 227 229 225 222 222 221 221 222 223 224 225 224 222 221 222 223 224 225 228 230 232 234 236 237 235 234 235 234 234 233 232 234 238 240 241 243 243 242 242 243 245 248 251 256 259 261 263 268 272 274 277 281 284 286 288 289 289 292 297 299 301 304 308 311 312 312 309 306 305 308 310 311 311 313 313 311 311 312 312 314 317
228 229 229 227 228 230 225 220 221 221 220 221 222 224 225 225 224 223 222 221 222 222 224 227 230 232 235 237 236 236 235 235 235 234 233 235 239 241 242 244 246 246 246 246 247 251 254 258 261 264 265 268 271 273 275 278 281 283 285 286 286 288 291 292 295 298 303 308 313 314 310 305 303 305 307 308 308 310 310 310 310 311 311 312 314
227 228 229 228 230 231 225 220 220 221 220 220 221 222 224 226 227 227 225 223 223 223 224 227 229 231 233 235 236 236 235 235 235 234 233 234 238 241 243 245 248 249 249 249 249 251 254 259 262 266 269 271 272 273 273 273 275 277 280 283 284 284 285 288 291 293 296 302 307 309 307 305 304 304 304 304 305 306 308 308 308 309 310 311 313
227 229 230 230 231 231 226 220 220 221 220 220 221 222 223 225 227 228 228 227 226 225 226 229 231 232 233 234 235 236 235 235 235 234 233 234 238 240 242 244 247 249 250 251 252 253 254 256 260 265 269 271 271 272 272 270 269 272 275 279 281 281 284 288 290 292 296 300 302 302 303 304 304 302 302 301 301 302 305 306 307 308 308 310 311
227 229 230 231 232 231 226 221 219 220 221 220 220 221 222 223 225 226 228 228 227 226 226 228 231 233 233 234 234 235 235 234 234 234 233 233 236 239 240 241 245 248 251 251 251 254 256 255 257 262 266 267 268 269 270 269 269 270 273 275 277 278 282 285 288 291 294 297 298 298 300 302 301 300 301 300 299 300 303 304 305 306 307 308 310
227 229 230 231 232 231 227 222 219 219 221 221 220 221 222 222 223 224 226 228 228 227 227 228 230 231 233 234 234 234 234 234 234 234 233 233 236 239 241 241 244 248 251 252 251 254 256 256 257 259 262 266 267 268 269 270 271 272 273 273 275 276 279 283 286 289 291 293 294 295 297 299 299 299 299 297 297 299 302 302 303 304 305 307 308
228 230 231 232 232 230 227 223 219 219 221 221 221 221 222 221 222 223 225 227 228 228 228 229 230 231 232 233 233 233 233 233 234 234 235 235 237 240 243 243 244 246 248 250 252 254 256 255 255 257 261 265 267 268 269 269 271 273 273 273 275 278 281 284 287 289 291 292 292 292 294 295 295 296 296 294 295 298 300 301 301 302 303 305 307
229 231 232 233 233 231 227 224 220 219 221 221 221 221 222 221 221 221 223 226 229 230 230 231 232 233 231 230 232 233 232 233 234 235 237 239 239 240 243 245 246 247 248 249 251 254 255 255 255 257 261 264 264 265 268 269 271 273 273 274 277 280 282 284 287 289 290 290 290 291 292 292 291 291 292 292 294 298 299 299 299 300 302 304 306
230 231 233 235 235 232 228 224 221 219 221 221 221 221 222 221 220 220 222 225 228 231 232 233 235 235 231 230 234 234 232 233 236 236 239 241 242 242 244 246 248 249 250 251 251 253 255 255 256 258 260 262 262 263 266 269 271 272 273 274 277 279 280 283 286 287 287 288 290 291 291 290 289 289 290 290 293 296 297 296 296 297 300 302 304
231 233 236 237 236 233 229 225 222 220 221 222 222 222 222 221 221 220 221 224 227 230 233 234 236 234 230 231 235 234 232 235 238 238 239 242 243 244 244 246 248 250 252 252 253 254 255 255 257 257 258 260 261 262 264 267 270 272 273 275 277 278 279 282 283 283 284 287 291 291 291 292 292 290 290 291 292 294 293 292 293 294 296 299 302
234 235 237 238 237 233 229 226 223 222 222 222 222 222 221 222 221 221 221 223 226 229 232 235 235 233 231 231 233 233 233 236 238 239 240 242 245 246 246 246 247 249 252 254 254 255 255 255 256 257 257 258 260 261 262 265 268 272 275 277 278 278 280 282 282 282 283 285 288 289 290 292 292 290 290 290 290 291 290 289 290 291 293 296 299
Height
5846 5848 5849 5850 5851 5852 5853 5854 5855 5855 5856 5856 5856 5856 5855 5854 5855 5855 5855 5856 5857 5857 5857 5858 5858 5859 5860 5860 5860 5860 5860 5860 5859 5858 5856 5856 5856 5855 5854 5852 5850 5849 5848 5847 5846 5846 5845 5844 5844 5844 5844 5844 5844 5844 5843 5842 5842 5841 5841 5841 5840 5840 5839 5839 5839 5839 5838 5838 5837 5837 5837 5836 5836 5836 5836 5836 5836 5836 5836 5835 5835 5834 5834 5833 5833
5845 5847 5848 5849 5849 5850 5852 5853 5854 5854 5855 5855 5855 5855 5855 5854 5854 5854 5855 5856 5857 5857 5857 5857 5858 5859 5859 5860 5860 5859 5860 5860 5859 5858 5856 5856 5856 5856 5854 5852 5851 5849 5848 5848 5847 5846 5846 5846 5846 5845 5845 5845 5845 5845 5844 5844 5843 5842 5842 5842 5841 5841 5840 5840 5840 5840 5839 5839 5839 5838 5838 5838 5838 5838 5837 5837 5837 5837 5836 5836 5836 5835 5835 5834 5833
5844 5845 5846 5847 5848 5849 5850 5852 5852 5853 5854 5854 5854 5854 5855 5854 5854 5855 5855 5856 5856 5857 5857 5857 5858 5859 5859 5859 5859 5859 5860 5860 5859 5858 5856 5856 5856 5856 5855 5853 5851 5850 5849 5849 5848 5847 5847 5847 5847 5846 5846 5846 5846 5846 5845 5845 5844 5843 5843 5842 5842 5842 5841 5841 5840 5840 5840 5840 5840 5839 5839 5839 5839 5839 5838 5838 5838 5838 5837 5837 5836 5836 5835 5834 5834
5842 5844 5845 5846 5846 5847 5849 5850 5851 5852 5853 5853 5853 5853 5854 5854 5854 5855 5855 5856 5856 5857 5857 5857 5858 5858 5859 5859 5859 5859 5859 5860 5859 5858 5857 5856 5855 5856 5855 5854 5852 5851 5850 5849 5849 5849 5848 5848 5848 5847 5847 5847 5847 5846 5846 5845 5845 5844 5844 5843 5843 5842 5842 5841 5841 5841 5841 5841 5840 5840 5840 5840 5840 5840 5839 5839 5839 5838 5838 5838 5837 5836 5836 5835 5834
5840 5842 5843 5844 5845 5846 5847 5849 5850 5851 5852 5852 5852 5852 5853 5854 5854 5854 5855 5856 5856 5857 5857 5857 5857 5858 5858 5858 5858 5858 5858 5859 5859 5858 5857 5856 5856 5856 5856 5854 5853 5852 5851 5850 5850 5849 5849 5849 5848 5848 5848 5848 5847 5847 5847 5846 5845 5845 5844 5844 5844 5843 5842 5842 5841 5841 5841 5841 5841 5841 5841 5841 5840 5840 5840 5840 5840 5839 5839 5838 5837 5837 5836 5835 5834
5838 5839 5841 5843 5844 5845 5846 5847 5849 5850 5851 5851 5851 5851 5852 5853 5853 5854 5855 5856 5856 5856 5857 5857 5857 5857 5858 5857 5857 5857 5858 5858 5859 5858 5857 5857 5857 5856 5856 5855 5853 5852 5851 5851 5850 5850 5849 5849 5849 5848 5848 5848 5848 5848 5847 5847 5846 5845 5845 5845 5844 5844 5843 5842 5842 5841 5841 5841 5841 5841 5841 5841 5841 5841 5841 5841 5840 5840 5839 5838 5838 5837 5836 5835 5834
5836 5837 5839 5841 5842 5844 5845 5846 5847 5849 5850 5850 5850 5851 5851 5852 5853 5854 5855 5855 5856 5856 5856 5856 5857 5857 5857 5857 5856 5856 5857 5858 5858 5858 5857 5857 5857 5857 5857 5856 5854 5853 5852 5851 5851 5851 5850 5849 5849 5849 5849 5848 5848 5848 5848 5847 5847 5846 5845 5845 5845 5844 5843 5843 5842 5842 5842 5842 5842 5842 5842 5842 5841 5841 5841 5841 5841 5840 5839 5839 5838 5838 5837 5836 5834
5835 5836 5837 5838 5840 5842 5844 5844 5845 5847 5848 5849 5849 5850 5851 5851 5852 5853 5854 5855 5855 5855 5855 5856 5856 5856 5856 5856 5856 5856 5856 5857 5857 5857 5856 5857 5858 5858 5857 5855 5854 5853 5853 5852 5851 5851 5851 5850 5850 5849 5849 5849 5849 5848 5848 5847 5847 5846 5846 5845 5845 5845 5844 5844 5843 5843 5842 5842 5843 5842 5842 5842 5842 5842 5842 5841 5841 5840 5840 5839 5839 5838 5837 5835 5834
5833 5834 5835 5836 5837 5840 5842 5843 5844 5845 5847 5848 5848 5849 5850 5850 5851 5852 5853 5854 5854 5854 5855 5855 5855 5855 5856 5856 5856 5856 5856 5856 5856 5856 5856 5857 5857 5858 5858 5855 5854 5854 5853 5853 5852 5852 5851 5851 5850 5850 5849 5849 5849 5849 5848 5848 5847 5847 5847 5846 5845 5845 5845 5844 5844 5843 5843 5843 5843 5843 5843 5843 5842 5842 5842 5842 5841 5841 5840 5839 5838 5838 5837 5835 5834
5831 5832 5834 5834 5836 5838 5840 5842 5842 5843 5845 5846 5847 5848 5849 5849 5850 5851 5852 5853 5853 5854 5854 5855 5855 5855 5855 5855 5855 5855 5855 5856 5855 5855 5855 5856 5857 5857 5857 5856 5854 5854 5854 5853 5853 5852 5852 5851 5851 5850 5850 5850 5849 5849 5849 5848 5848 5847 5847 5847 5846 5845 5845 5845 5845 5844 5844 5844 5844 5844 5843 5843 5843 5843 5842 5842 5841 5841 5840 5839 5838 5838 5837 5835 5834
5829 5831 5832 5833 5834 5836 5838 5840 5841 5842 5843 5845 5846 5847 5848 5848 5849 5850 5851 5852 5852 5853 5853 5854 5854 5854 5855 5855 5855 5855 5855 5855 5855 5855 5855 5855 5856 5857 5857 5857 5855 5854 5854 5854 5854 5853 5852 5852 5851 5851 5851 5850 5850 5849 5849 5848 5848 5847 5847 5847 5846 5846 5846 5845 5845 5845 5845 5845 5844 5844 5844 5844 5843 5843 5843 5842 5842 5841 5840 5839 5838 5837 5836 5835 5834
5828 5829 5831 5832 5833 5834 5835 5837 5839 5840 5841 5843 5844 5845 5846 5847 5848 5849 5850 5851 5851 5852 5853 5853 5854 5854 5854 5854 5855 5855 5855 5855 5854 5854 5854 5855 5856 5856 5857 5857 5855 5854 5854 5854 5854 5853 5852 5852 5852 5851 5851 5851 5850 5850 5849 5849 5848 5848 5847 5847 5846 5846 5846 5846 5846 5846 5846 5845 5845 5845 5844 5844 5844 5843 5843 5842 5842 5841 5840 5839 5838 5837 5836 5835 5834
5826 5827 5829 5830 5831 5832 5833 5834 5837 5838 5839 5840 5842 5843 5844 5846 5847 5847 5848 5850 5851 5851 5852 5852 5853 5853 5854 5854 5854 5854 5854 5854 5854 5854 5854 5854 5855 5856 5857 5857 5856 5855 5854 5854 5854 5853 5853 5853 5852 5852 5852 5851 5851 5850 5850 5849 5849 5848 5847 5847 5847 5846 5846 5846 5846 5846 5846 5846 5845 5845 5845 5844 5844 5843 5843 5842 5841 5841 5840 5839 5838 5837 5836 5835 5834
5824 5825 5827 5828 5829 5830 5831 5832 5833 5836 5836 5838 5840 5841 5843 5844 5845 5846 5847 5848 5849 5850 5851 5852 5853 5853 5853 5854 5854 5854 5854 5854 5854 5853 5853 5853 5854 5855 5856 5856 5856 5855 5854 5854 5854 5854 5853 5853 5852 5852 5852 5852 5851 5851 5850 5850 5850 5849 5848 5848 5847 5847 5846 5846 5846 5846 5846 5846 5845 5845 5845 5844 5844 5843 5843 5842 5841 5840 5839 5838 5837 5837 5835 5834 5833
5821 5823 5825 5826 5827 5828 5828 5828 5829 5832 5834 5835 5838 5839 5841 5842 5843 5844 5845 5847 5848 5849 5850 5851 5852 5853 5853 5853 5853 5854 5854 5854 5854 5853 5853 5853 5854 5854 5855 5855 5855 5855 5854 5854 5854 5854 5853 5853 5852 5852 5852 5852 5851 5851 5851 5850 5850 5849 5849 5848 5848 5847 5847 5847 5846 5846 5846 5845 5845 5845 5844 5844 5844 5843 5842 5841 5841 5840 5839 5838 5837 5836 5835 5834 5833
5818 5820 5822 5824 5825 5826 5826 5825 5826 5829 5831 5833 5835 5837 5839 5840 5841 5842 5844 5845 5847 5848 5849 5850 5851 5852 5853 5853 5853 5853 5854 5854 5854 5854 5853 5853 5853 5854 5854 5855 5855 5855 5854 5854 5854 5854 5854 5853 5853 5852 5852 5852 5852 5851 5851 5850 5850 5850 5849 5849 5848 5848 5847 5847 5847 5846 5846 5846 5845 5844 5844 5843 5843 5843 5842 5841 5840 5839 5838 5838 5836 5835 5835 5834 5833
5815 5817 5819 5821 5823 5824 5824 5824 5825 5828 5830 5831 5833 5835 5837 5838 5840 5841 5842 5844 5845 5846 5848 5849 5851 5851 5852 5853 5853 5853 5854 5854 5854 5854 5853 5853 5853 5853 5853 5854 5854 5854 5854 5853 5854 5854 5853 5853 5853 5852 5852 5852 5852 5852 5851 5850 5850 5850 5850 5849 5849 5848 5848 5847 5847 5846 5846 5845 5845 5844 5844 5843 5843 5842 5842 5841 5840 5839 5838 5837 5836 5835 5834 5833 5832
5812 5814 5817 5819 5820 5822 5823 5824 5825 5827 5829 5830 5831 5833 5835 5836 5838 5840 5841 5842 5843 5845 5847 5849 5850 5851 5851 5852 5852 5852 5853 5853 5853 5853 5853 5853 5852 5852 5853 5853 5853 5854 5853 5853 5854 5854 5853 5853 5853 5852 5852 5852 5852 5851 5851 5851 5850 5850 5850 5849 5849 5848 5848 5847 5847 5846 5846 5845 5844 5844 5843 5843 5842 5842 5841 5840 5839 5838 5837 5836 5835 5834 5833 5832 5831
5810 5812 5814 5816 5818 5820 5821 5822 5824 5826 5827 5829 5830 5832 5833 5835 5836 5838 5839 5840 5842 5843 5845 5847 5849 5850 5850 5851 5851 5851 5852 5853 5853 5852 5852 5852 5852 5852 5852 5852 5853 5853 5853 5853 5854 5853 5853 5852 5852 5852 5851 5851 5851 5851 5851 5850 5850 5850 5849 5849 5849 5848 5848 5847 5847 5846 5845 5845 5844 5843 5843 5842 5842 5841 5840 5839 5838 5837 5836 5835 5834 5834 5833 5831 5830
5807 5809 5811 5813 5815 5817 5819 5820 5822 5824 5825 5827 5828 5830 5831 5833 5834 5836 5837 5838 5840 5842 5844 5846 5847 5848 5849 5850 5850 5850 5851 5852 5852 5852 5852 5852 5852 5852 5852 5852 5852 5852 5853 5853 5853 5853 5852 5852 5851 5851 5851 5851 5851 5851 5851 5850 5850 5849 5849 5849 5848 5848 5848 5847 5846 5846 5845 5844 5843 5843 5842 5841 5841 5840 5840 5839 5838 5837 5836 5835 5834 5833 5832 5830 5829
5803 5805 5807 5810 5812 5814 5816 5818 5819 5821 5823 5825 5826 5827 5829 5830 5832 5834 5836 5837 5838 5839 5842 5844 5845 5847 5848 5848 5849 5849 5850 5850 5851 5851 5851 5851 5851 5851 5851 5852 5851 5852 5852 5852 5852 5852 5852 5851 5851 5851 5851 5850 5850 5850 5850 5850 5849 5849 5849 5848 5848 5848 5847 5846 5846 5845 5844 5844 5843 5842 5842 5841 5840 5839 5839 5838 5837 5836 5835 5834 5833 5832 5831 5829 5828
5800 5802 5804 5806 5808 5811 5812 5814 5816 5818 5819 5821 5823 5824 5826 5828 5830 5831 5833 5835 5836 5837 5839 5841 5843 5845 5846 5847 5847 5848 5848 5849 5850 5850 5850 5851 5851 5851 5851 5851 5851 5851 5851 5851 5851 5851 5851 5851 5850 5850 5850 5850 5849 5849 5849 5849 5849 5849 5848 5848 5847 5847 5846 5846 5845 5844 5844 5843 5842 5842 5841 5840 5839 5839 5838 5837 5836 5835 5834 5833 5832 5831 5830 5829 5827
5796 5798 5800 5802 5805 5807 5809 5811 5813 5814 5815 5816 5818 5821 5822 5825 5827 5828 5831 5833 5834 5835 5837 5839 5841 5842 5843 5845 5846 5846 5847 5847 5848 5849 5850 5850 5850 5850 5850 5850 5850 5850 5850 5850 5850 5850 5850 5850 5850 5849 5849 5849 5849 5848 5848 5848 5848 5848 5847 5847 5846 5846 5845 5845 5844 5844 5843 5842 5841 5841 5840 5839 5839 5838 5837 5836 5835 5835 5833 5832 5831 5830 5829 5828 5826
5792 5794 5796 5798 5801 5803 5805 5807 5809 5811 5811 5812 5814 5817 5819 5821 5823 5825 5828 5830 5831 5833 5834 5836 5838 5840 5841 5842 5843 5845 5845 5846 5846 5847 5848 5849 5849 5849 5850 5850 5850 5849 5849 5849 5849 5849 5849 5849 5848 5848 5848 5848 5848 5848 5847 5847 5847 5846 5846 5846 5845 5845 5844 5843 5843 5842 5842 5841 5840 5840 5840 5839 5838 5837 5836 5835 5835 5834 5833 5831 5830 5829 5828 5827 5825
5788 5790 5793 5794 5796 5799 5802 5804 5806 5808 5809 5810 5812 5814 5815 5818 5820 5822 5825 5827 5828 5830 5832 5833 5835 5837 5838 5839 5841 5842 5844 5844 5845 5846 5847 5848 5848 5848 5849 5849 5849 5849 5848 5848 5848 5848 5848 5848 5847 5847 5847 5847 5847 5846 5846 5846 5845 5845 5845 5845 5844 5843 5843 5842 5842 5841 5841 5840 5840 5839 5839 5838 5838 5837 5836 5835 5834 5833 5831 5830 5829 5827 5826 5825 5824
5783 5786 5788 5790 5792 5795 5798 5800 5801 5803 5805 5807 5809 5811 5812 5815 5817 5819 5821 5823 5825 5827 5829 5831 5832 5834 5836 5837 5839 5840 5842 5843 5844 5844 5845 5846 5847 5847 5848 5848 5848 5848 5848 5848 5848 5847 5847 5847 5846 5846 5846 5846 5846 5845 5845 5845 5844 5844 5844 5843 5843 5842 5841 5841 5841 5840 5840 5839 5839 5838 5838 5837 5837 5836 5835 5834 5832 5831 5830 5828 5827 5826 5824 5823 5822
5777 5781 5783 5785 5787 5790 5792 5794 5795 5797 5800 5803 5805 5807 5809 5811 5813 5815 5818 5820 5823 5825 5826 5828 5830 5832 5834 5835 5836 5837 5839 5841 5842 5843 5844 5845 5845 5846 5846 5847 5847 5847 5847 5847 5847 5847 5847 5846 5846 5845 5845 5845 5845 5845 5844 5844 5843 5843 5842 5842 5841 5841 5840 5840 5839 5839 5839 5838 5838 5837 5837 5836 5835 5834 5833 5832 5831 5830 5828 5827 5825 5824 5823 5822 5821
5771 5775 5778 5780 5782 5784 5787 5789 5791 5793 5796 5798 5800 5803 5805 5808 5809 5811 5814 5817 5820 5822 5824 5825 5827 5829 5831 5832 5833 5835 5837 5839 5840 5841 5842 5843 5844 5844 5845 5845 5846 5846 5846 5846 5846 5846 5846 5846 5845 5845 5845 5845 5845 5844 5844 5843 5843 5842 5842 5841 5840 5840 5840 5839 5838 5838 5838 5837 5836 5836 5835 5835 5834 5833 5832 5831 5830 5828 5827 5826 5824 5822 5821 5820 5819
5764 5768 5772 5774 5777 5779 5781 5784 5789 5792 5794 5796 5798 5800 5802 5804 5806 5808 5810 5813 5816 5819 5821 5823 5825 5826 5828 5830 5831 5833 5834 5836 5838 5839 5840 5841 5842 5842 5843 5843 5844 5845 5845 5845 5845 5845 5845 5845 5845 5844 5844 5844 5844 5844 5843 5843 5842 5842 5841 5841 5840 5839 5839 5838 5837 5837 5837 5836 5836 5835 5834 5834 5833 5832 5831 5829 5828 5827 5826 5824 5823 5822 5820 5819 5818
5758 5762 5765 5768 5770 5773 5776 5780 5784 5787 5790 5792 5795 5797 5799 5800 5803 5805 5807 5809 5811 5815 5818 5820 5822 5823 5825 5827 5829 5830 5832 5834 5835 5837 5838 5839 5840 5840 5840 5841 5842 5843 5843 5843 5843 5843 5843 5843 5844 5844 5844 5843 5843 5843 5842 5842 5841 5841 5841 5840 5839 5839 5838 5837 5837 5836 5836 5835 5834 5834 5833 5833 5832 5831 5830 5828 5827 5826 5824 5823 5822 5821 5820 5818 5817
5751 5755 5758 5761 5765 5768 5771 5775 5779 5782 5784 5787 5790 5793 5795 5797 5799 5802 5804 5806 5807 5810 5814 5817 5819 5821 5822 5824 5826 5828 5829 5831 5832 5834 5836 5837 5837 5838 5838 5839 5840 5841 5842 5842 5842 5842 5842 5842 5842 5842 5843 5843 5842 5842 5842 5841 5841 5840 5840 5839 5839 5838 5837 5837 5836 5836 5835 5834 5833 5832 5832 5831 5830 5829 5828 5827 5826 5825 5823 5822 5821 5820 5819 5817 5816
5743 5747 5751 5755 5758 5762 5766 5769 5773 5776 5779 5782 5786 5788 5790 5793 5795 5798 5801 5802 5804 5806 5810 5813 5816 5817 5819 5821 5823 5825 5826 5828 5829 5831 5833 5834 5835 5835 5836 5837 5838 5839 5839 5840 5840 5840 5840 5841 5841 5841 5841 5841 5841 5841 5841 5840 5840 5839 5839 5838 5838 5837 5837 5837 5836 5835 5834 5834 5833 5831 5830 5830 5829 5828 5827 5826 5825 5824 5823 5821 5820 5819 5818 5816 5815
5736 5740 5743 5748 5752 5756 5760 5764 5767 5771 5774 5777 5780 5783 5785 5788 5791 5794 5797 5799 5801 5803 5805 5809 5812 5814 5816 5818 5820 5822 5823 5825 5826 5828 5830 5832 5832 5833 5834 5835 5836 5836 5837 5838 5838 5839 5839 5839 5839 5839 5840 5840 5840 5840 5840 5839 5839 5838 5838 5837 5837 5837 5836 5836 5835 5834 5834 5833 5832 5830 5829 5828 5828 5827 5825 5824 5823 5823 5822 5820 5819 5817 5816 5815 5813
5727 5732 5735 5740 5746 5750 5754 5758 5761 5765 5768 5771 5774 5778 5780 5784 5787 5789 5792 5794 5797 5799 5801 5804 5807 5810 5812 5815 5816 5818 5820 5822 5823 5825 5827 5829 5830 5830 5831 5832 5833 5834 5835 5836 5836 5837 5837 5837 5837 5837 5837 5838 5838 5838 5838 5838 5837 5837 5836 5836 5836 5835 5835 5835 5834 5833 5832 5831 5831 5829 5828 5827 5826 5825 5824 5823 5822 5821 5820 5819 5817 5816 5814 5813 5812
5719 5724 5728 5733 5739 5743 5747 5751 5755 5760 5763 5766 5769 5772 5776 5779 5782 5785 5787 5789 5792 5795 5797 5800 5803 5806 5808 5810 5812 5814 5816 5818 5820 5822 5824 5826 5827 5828 5828 5829 5830 5832 5833 5833 5834 5834 5835 5835 5835 5835 5835 5835 5836 5836 5835 5835 5835 5835 5835 5834 5834 5833 5833 5833 5833 5832 5831 5830 5829 5828 5827 5826 5825 5824 5823 5822 5820 5820 5819 5817 5816 5814 5813 5811 5810
5711 5716 5721 5725 5731 5736 5741 5745 5749 5753 5758 5761 5764 5767 5771 5774 5777 5780 5782 5784 5787 5790 5793 5795 5798 5801 5804 5806 5808 5810 5812 5814 5817 5819 5821 5823 5824 5825 5825 5826 5827 5829 5830 5831 5831 5832 5832 5833 5833 5833 5833 5833 5833 5834 5834 5833 5833 5833 5833 5832 5832 5832 5831 5831 5831 5830 5829 5829 5828 5827 5826 5825 5823 5822 5821 5820 5819 5818 5817 5816 5814 5813 5811 5809 5807
5704 5708 5712 5717 5723 5730 5734 5739 5743 5747 5752 5756 5759 5762 5765 5768 5771 5774 5776 5778 5781 5785 5788 5791 5793 5796 5799 5801 5803 5806 5808 5811 5813 5815 5817 5819 5821 5821 5822 5822 5824 5825 5827 5828 5829 5829 5829 5830 5830 5831 5831 5831 5831 5831 5832 5832 5831 5831 5830 5830 5830 5830 5829 5829 5829 5828 5827 5826 5826 5825 5824 5823 5822 5821 5820 5818 5817 5816 5815 5814 5812 5811 5809 5807 5805
5696 5700 5704 5710 5717 5723 5728 5732 5736 5741 5745 5749 5753 5756 5759 5762 5765 5768 5770 5772 5775 5779 5783 5786 5789 5791 5794 5796 5798 5801 5805 5807 5809 5812 5814 5815 5817 5818 5818 5819 5820 5822 5824 5825 5825 5826 5826 5827 5827 5828 5828 5829 5829 5829 5829 5829 5829 5829 5828 5829 5828 5828 5827 5827 5826 5826 5825 5824 5823 5823 5822 5821 5820 5819 5818 5817 5816 5814 5813 5812 5810 5809 5807 5804 5802
5689 5693 5698 5704 5709 5716 5721 5726 5730 5734 5738 5742 5746 5751 5754 5757 5759 5761 5764 5766 5769 5773 5777 5780 5784 5786 5789 5792 5794 5797 5801 5804 5806 5808 5810 5812 5813 5814 5815 5816 5817 5819 5821 5821 5822 5823 5823 5823 5824 5825 5825 5826 5826 5826 5826 5827 5827 5827 5826 5827 5827 5826 5826 5825 5824 5823 5823 5822 5821 5820 5819 5818 5817 5816 5816 5815 5813 5812 5811 5809 5808 5806 5804 5802 5800
5683 5687 5692 5697 5701 5707 5714 5719 5723 5727 5730 5734 5739 5744 5748 5751 5753 5755 5757 5760 5763 5767 5771 5774 5778 5781 5784 5787 5790 5793 5797 5800 5802 5805 5807 5808 5810 5811 5812 5813 5814 5816 5818 5818 5819 5820 5820 5820 5821 5822 5823 5823 5824 5824 5824 5824 5824 5824 5824 5824 5824 5824 5824 5823 5822 5821 5820 5819 5819 5818 5817 5815 5814 5813 5812 5812 5811 5810 5808 5807 5805 5804 5802 5800 5798
5678 5682 5687 5691 5695 5700 5707 5712 5716 5719 5723 5728 5733 5736 5740 5744 5747 5748 5749 5752 5756 5760 5764 5768 5771 5775 5779 5782 5786 5789 5793 5796 5799 5801 5803 5805 5806 5807 5809 5809 5811 5813 5815 5816 5816 5817 5818 5818 5818 5819 5820 5821 5821 5821 5821 5821 5821 5821 5821 5821 5821 5821 5821 5821 5820 5819 5818 5817 5816 5816 5814 5813 5812 5810 5809 5808 5807 5807 5806 5804 5802 5801 5799 5797 5795
5672 5676 5680 5685 5689 5694 5699 5704 5709 5713 5717 5721 5725 5729 5733 5737 5740 5741 5742 5745 5748 5751 5755 5760 5764 5769 5773 5777 5781 5785 5788 5792 5794 5797 5799 5801 5802 5804 5805 5806 5808 5810 5812 5813 5814 5815 5815 5816 5816 5816 5817 5818 5818 5818 5818 5818 5818 5818 5819 5818 5818 5818 5818 5817 5817 5816 5815 5814 5814 5813 5811 5810 5809 5808 5807 5805 5804 5803 5802 5801 5799 5798 5796 5794 5793
5666 5670 5674 5679 5683 5687 5692 5697 5702 5706 5711 5714 5717 5721 5726 5731 5734 5736 5739 5742 5745 5748 5752 5755 5759 5763 5767 5771 5775 5779 5783 5786 5789 5792 5794 5797 5798 5799 5801 5803 5804 5806 5808 5810 5811 5812 5813 5814 5814 5814 5815 5816 5815 5815 5815 5815 5815 5815 5816 5816 5815 5815 5814 5814 5813 5813 5812 5811 5811 5810 5808 5807 5806 5805 5804 5802 5801 5800 5799 5798 5796 5795 5793 5791 5790
5660 5664 5669 5674 5677 5680 5685 5689 5694 5700 5704 5707 5710 5715 5720 5724 5729 5733 5737 5740 5743 5747 5751 5754 5757 5759 5762 5766 5769 5773 5777 5781 5784 5787 5789 5792 5794 5795 5797 5799 5800 5802 5804 5806 5808 5809 5810 5811 5811 5812 5812 5812 5812 5812 5812 5811 5811 5812 5813 5812 5812 5811 5811 5811 5810 5809 5809 5808 5807 5806 5805 5804 5803 5802 5801 5799 5798 5797 5797 5795 5793 5792 5790 5788 5787
5654 5659 5664 5667 5670 5673 5677 5682 5687 5693 5697 5700 5704 5709 5714 5719 5724 5729 5733 5736 5739 5742 5746 5749 5752 5754 5757 5760 5764 5767 5771 5775 5778 5781 5784 5787 5788 5790 5792 5794 5795 5797 5799 5801 5804 5805 5806 5807 5808 5809 5809 5808 5809 5809 5809 5808 5808 5809 5809 5809 5808 5808 5808 5808 5807 5806 5806 5805 5803 5802 5802 5801 5799 5798 5798 5796 5795 5794 5794 5792 5790 5789 5787 5786 5784
5648 5653 5657 5660 5662 5666 5671 5675 5680 5686 5690 5693 5697 5702 5708 5714 5719 5724 5728 5731 5734 5737 5740 5743 5746 5749 5751 5754 5758 5762 5765 5768 5771 5775 5778 5781 5783 5784 5786 5788 5791 5793 5794 5796 5798 5800 5801 5803 5804 5805 5804 5803 5804 5805 5806 5805 5804 5805 5805 5805 5804 5804 5804 5805 5804 5802 5802 5802 5799 5797 5798 5797 5796 5795 5794 5792 5791 5791 5790 5788 5787 5785 5784 5782 5781
5643 5647 5650 5652 5655 5659 5664 5668 5674 5679 5682 5687 5692 5696 5702 5708 5714 5719 5723 5725 5728 5731 5734 5737 5739 5742 5745 5748 5752 5756 5759 5762 5766 5769 5773 5776 5778 5779 5781 5783 5786 5788 5789 5792 5794 5795 5797 5798 5800 5800 5799 5799 5800 5800 5800 5801 5801 5801 5800 5800 5800 5800 5801 5801 5801 5799 5798 5798 5796 5793 5793 5793 5792 5791 5790 5788 5788 5788 5787 5785 5783 5782 5781 5779 5778
5638 5641 5643 5646 5650 5654 5658 5662 5668 5672 5676 5681 5686 5691 5696 5702 5708 5713 5717 5720 5722 5725 5728 5731 5733 5736 5739 5742 5746 5750 5753 5757 5761 5765 5768 5770 5772 5774 5776 5778 5781 5783 5784 5788 5790 5791 5792 5793 5795 5796 5795 5795 5795 5795 5794 5796 5797 5796 5795 5796 5797 5797 5796 5796 5797 5796 5794 5794 5793 5790 5789 5789 5788 5787 5786 5784 5784 5784 5783 5782 5780 5778 5777 5776 5774
5633 5636 5638 5641 5646 5650 5654 5657 5662 5666 5670 5675 5680 5685 5690 5696 5702 5707 5711 5714 5716 5719 5723 5727 5729 5731 5735 5738 5742 5745 5748 5752 5756 5760 5763 5764 5766 5769 5771 5773 5776 5777 5780 5783 5786 5787 5788 5789 5790 5791 5790 5790 5791 5791 5790 5790 5791 5791 5791 5792 5793 5792 5791 5791 5792 5792 5790 5790 5790 5786 5784 5784 5784 5783 5782 5780 5780 5781 5779 5778 5777 5775 5773 5772 5771
5630 5633 5635 5637 5642 5646 5649 5652 5657 5662 5666 5670 5675 5680 5685 5690 5696 5702 5705 5708 5711 5714 5718 5722 5724 5727 5731 5735 5738 5740 5744 5748 5751 5755 5757 5758 5760 5763 5766 5768 5771 5772 5775 5778 5781 5782 5783 5784 5784 5785 5786 5786 5786 5787 5786 5786 5786 5786 5787 5788 5788 5787 5787 5787 5787 5786 5785 5787 5786 5782 5780 5780 5780 5780 5779 5777 5776 5776 5775 5774 5773 5771 5769 5768 5767
5625 5627 5630 5633 5637 5641 5645 5649 5653 5657 5661 5664 5669 5675 5680 5685 5690 5695 5699 5703 5706 5710 5713 5716 5720 5723 5727 5731 5734 5736 5739 5743 5746 5749 5752 5752 5754 5757 5761 5763 5765 5767 5770 5773 5775 5776 5777 5778 5778 5779 5780 5781 5781 5781 5781 5781 5781 5782 5784 5784 5783 5782 5782 5782 5781 5780 5780 5782 5782 5778 5775 5776 5776 5776 5775 5773 5772 5771 5770 5769 5768 5766 5765 5763 5762